Location: New Plymouth
(39.0670°S, 174.0830°E)
Time: 23:57:34
(UTC+13:00)

Lacrosse 5 - Pass Details

Date: 24 January 2019
Orbit: 713 x 725 km, 57.0° (Epoch: 17 February)

Event Time Altitude Azimuth Distance (km) Brightness Sun altitude
Rises 21:08:58 0° 221° (SW) 3,171 6.8 -4.7°
Reaches altitude 10° 21:11:25 10° 217° (SW) 2,243 5.7 -5.1°
Maximum altitude 21:16:33 61° 136° (SE) 830 2.2 -6.0°
Drops below altitude 10° 21:21:36 10° 56° (NE) 2,215 3.7 -6.8°
Enters shadow 21:21:58 - 55° (NE) 2,354 3.8 -6.9°
